• In Belarus
  • List of Countries
  • For 7 days
  • Water Temperature
  • Satellite Maps
  • Weather Map
  • Weather Widgets
  • user-avatar
    Login

    Hourly Weather Andora

    Today, 20 October, Friday

    Time Temperature Precipitation Wind Pressure Humidity
    00:00 +6°C° 0 mm 2 mps 623 mmHg 90%
    01:00 +7°C° 0 mm 1 mps 623 mmHg 89%
    02:00 +7°C° 0 mm 1 mps 623 mmHg 88%
    03:00 +7°C° 0 mm 1 mps 623 mmHg 88%
    04:00 +7°C° 0 mm 1 mps 623 mmHg 87%
    05:00 +7°C° 0 mm 1 mps 624 mmHg 87%
    06:00 +5°C° 0 mm 2 mps 624 mmHg 84%
    07:00 +8°C° 0 mm 1 mps 625 mmHg 78%
    08:00 +10°C° 0 mm 1 mps 626 mmHg 72%
    09:00 +11°C° 0 mm 0 mps 627 mmHg 67%
    10:00 +13°C° 0 mm 1 mps 628 mmHg 64%
    11:00 +14°C° 0 mm 1 mps 628 mmHg 61%
    12:00 +15°C° 0 mm 2 mps 629 mmHg 58%
    13:00 +15°C° 0 mm 2 mps 629 mmHg 60%
    14:00 +14°C° 0 mm 2 mps 628 mmHg 62%
    15:00 +14°C° 0 mm 2 mps 628 mmHg 64%
    16:00 +12°C° 0 mm 2 mps 628 mmHg 73%
    17:00 +11°C° 0 mm 1 mps 627 mmHg 81%
    18:00 +9°C° 0 mm 1 mps 626 mmHg 89%
    19:00 +9°C° 0 mm 1 mps 627 mmHg 89%
    20:00 +8°C° 0 mm 1 mps 627 mmHg 88%
    21:00 +8°C° 0 mm 1 mps 627 mmHg 88%
    22:00 +8°C° 0 mm 1 mps 627 mmHg 86%
    23:00 +7°C° 0 mm 1 mps 627 mmHg 84%

    Tomorrow, 21 October, Saturday

    Time Temperature Precipitation Wind Pressure Humidity
    00:00 +7°C° 0 mm 1 mps 627 mmHg 83%
    01:00 +7°C° 0 mm 1 mps 626 mmHg 81%
    02:00 +7°C° 0 mm 1 mps 626 mmHg 79%
    03:00 +7°C° 0 mm 1 mps 626 mmHg 78%
    04:00 +7°C° 0 mm 1 mps 626 mmHg 76%
    05:00 +7°C° 0 mm 1 mps 626 mmHg 73%
    06:00 +7°C° 0 mm 1 mps 626 mmHg 71%
    07:00 +9°C° 0 mm 1 mps 627 mmHg 67%
    08:00 +10°C° 0 mm 2 mps 629 mmHg 63%
    09:00 +12°C° 0 mm 2 mps 630 mmHg 59%
    10:00 +13°C° 0 mm 2 mps 630 mmHg 59%
    11:00 +14°C° 0 mm 1 mps 630 mmHg 59%
    12:00 +14°C° 0 mm 1 mps 631 mmHg 59%
    13:00 +14°C° 0.1 mm 1 mps 630 mmHg 63%
    14:00 +13°C° 0.1 mm 1 mps 630 mmHg 68%
    15:00 +12°C° 0.1 mm 1 mps 629 mmHg 72%
    16:00 +11°C° 0.1 mm 1 mps 629 mmHg 78%
    17:00 +9°C° 0.1 mm 1 mps 629 mmHg 84%
    18:00 +8°C° 0.1 mm 1 mps 629 mmHg 91%
    19:00 +8°C° 0.1 mm 1 mps 629 mmHg 92%
    20:00 +8°C° 0.1 mm 1 mps 630 mmHg 93%
    21:00 +7°C° 0.1 mm 1 mps 630 mmHg 94%
    22:00 +7°C° 0.1 mm 1 mps 630 mmHg 94%
    23:00 +7°C° 0.1 mm 1 mps 630 mmHg 94%

    Day after tomorrow, 22 October, Sunday

    Time Temperature Precipitation Wind Pressure Humidity
    00:00 +6°C° 0.1 mm 1 mps 630 mmHg 95%
    01:00 +6°C° 0 mm 1 mps 629 mmHg 95%
    02:00 +5°C° 0 mm 1 mps 629 mmHg 94%
    03:00 +5°C° 0 mm 1 mps 629 mmHg 94%
    04:00 +3°C° 0 mm 2 mps 629 mmHg 93%
    05:00 +3°C° 0 mm 2 mps 628 mmHg 92%
    06:00 +2°C° 0 mm 2 mps 628 mmHg 91%
    07:00 +4°C° 0 mm 2 mps 629 mmHg 84%
    08:00 +5°C° 0 mm 2 mps 630 mmHg 76%
    09:00 +6°C° 0 mm 2 mps 630 mmHg 69%
    10:00 +7°C° 0 mm 2 mps 630 mmHg 64%
    11:00 +8°C° 0 mm 2 mps 631 mmHg 59%
    12:00 +9°C° 0 mm 2 mps 631 mmHg 54%
    13:00 +9°C° 0 mm 3 mps 631 mmHg 54%
    14:00 +9°C° 0 mm 3 mps 630 mmHg 55%
    15:00 +9°C° 0 mm 3 mps 630 mmHg 55%
    16:00 +7°C° 0 mm 3 mps 629 mmHg 62%
    17:00 +5°C° 0 mm 2 mps 629 mmHg 70%
    18:00 +3°C° 0 mm 2 mps 629 mmHg 77%
    19:00 +3°C° 0 mm 2 mps 629 mmHg 74%
    20:00 +3°C° 0 mm 2 mps 629 mmHg 71%
    21:00 +2°C° 0 mm 2 mps 629 mmHg 68%
    22:00 +2°C° 0 mm 2 mps 629 mmHg 69%
    23:00 +2°C° 0 mm 2 mps 629 mmHg 69%

    23 October, Monday

    Time Temperature Precipitation Wind Pressure Humidity
    00:00 +2°C° 0 mm 2 mps 628 mmHg 70%
    01:00 +2°C° 0 mm 2 mps 628 mmHg 71%
    02:00 +1°C° 0 mm 2 mps 628 mmHg 71%
    03:00 +1°C° 0 mm 2 mps 628 mmHg 72%
    04:00 +1°C° 0 mm 2 mps 628 mmHg 71%
    05:00 +1°C° 0 mm 2 mps 628 mmHg 69%
    06:00 +1°C° 0 mm 2 mps 628 mmHg 68%
    07:00 +4°C° 0 mm 2 mps 629 mmHg 60%
    08:00 +7°C° 0 mm 1 mps 630 mmHg 53%
    09:00 +9°C° 0 mm 1 mps 631 mmHg 45%
    10:00 +11°C° 0 mm 1 mps 632 mmHg 43%
    11:00 +12°C° 0 mm 1 mps 632 mmHg 42%
    12:00 +13°C° 0 mm 2 mps 632 mmHg 40%
    13:00 +13°C° 0 mm 2 mps 632 mmHg 42%
    14:00 +13°C° 0 mm 2 mps 631 mmHg 45%
    15:00 +13°C° 0 mm 2 mps 631 mmHg 47%
    16:00 +10°C° 0 mm 2 mps 630 mmHg 55%
    17:00 +8°C° 0 mm 1 mps 629 mmHg 64%
    18:00 +6°C° 0 mm 1 mps 629 mmHg 72%
    19:00 +5°C° 0 mm 2 mps 629 mmHg 69%
    20:00 +5°C° 0 mm 2 mps 629 mmHg 66%
    21:00 +5°C° 0 mm 2 mps 629 mmHg 63%
    22:00 +5°C° 0 mm 2 mps 629 mmHg 60%
    23:00 +5°C° 0 mm 2 mps 629 mmHg 57%

    24 October, Tuesday

    Time Temperature Precipitation Wind Pressure Humidity
    00:00 +5°C° 0 mm 2 mps 629 mmHg 54%
    01:00 +5°C° 0 mm 2 mps 629 mmHg 52%
    02:00 +5°C° 0 mm 2 mps 628 mmHg 50%
    03:00 +6°C° 0 mm 1 mps 628 mmHg 49%
    04:00 +5°C° 0 mm 2 mps 628 mmHg 48%
    05:00 +5°C° 0 mm 2 mps 628 mmHg 47%
    06:00 +5°C° 0 mm 2 mps 628 mmHg 47%
    07:00 +9°C° 0 mm 1 mps 629 mmHg 43%
    08:00 +12°C° 0 mm 1 mps 630 mmHg 40%
    09:00 +13°C° 0 mm 0 mps 631 mmHg 36%
    10:00 +15°C° 0 mm 1 mps 631 mmHg 34%
    11:00 +18°C° 0 mm 1 mps 632 mmHg 32%
    12:00 +19°C° 0 mm 1 mps 632 mmHg 31%
    13:00 +19°C° 0 mm 1 mps 631 mmHg 33%
    14:00 +18°C° 0 mm 1 mps 631 mmHg 35%
    15:00 +18°C° 0 mm 1 mps 630 mmHg 37%
    16:00 +15°C° 0 mm 1 mps 630 mmHg 45%
    17:00 +12°C° 0 mm 1 mps 629 mmHg 52%
    18:00 +10°C° 0 mm 1 mps 628 mmHg 59%
    19:00 +10°C° 0 mm 1 mps 628 mmHg 57%
    20:00 +10°C° 0 mm 1 mps 628 mmHg 56%
    21:00 +9°C° 0 mm 1 mps 628 mmHg 54%
    22:00 +9°C° 0 mm 1 mps 628 mmHg 53%
    23:00 +9°C° 0 mm 1 mps 628 mmHg 52%

    25 October, Wednesday

    Time Temperature Precipitation Wind Pressure Humidity
    00:00 +9°C° 0 mm 1 mps 628 mmHg 51%
    01:00 +9°C° 0 mm 1 mps 628 mmHg 52%
    02:00 +8°C° 0 mm 1 mps 628 mmHg 54%
    03:00 +8°C° 0 mm 1 mps 628 mmHg 55%
    04:00 +8°C° 0 mm 1 mps 628 mmHg 57%
    05:00 +8°C° 0 mm 1 mps 628 mmHg 58%
    06:00 +8°C° 0 mm 1 mps 628 mmHg 60%
    07:00 +10°C° 0 mm 1 mps 629 mmHg 55%
    08:00 +12°C° 0 mm 1 mps 630 mmHg 51%
    09:00 +15°C° 0 mm 2 mps 631 mmHg 46%
    10:00 +16°C° 0 mm 2 mps 631 mmHg 43%
    11:00 +17°C° 0 mm 2 mps 631 mmHg 41%
    12:00 +18°C° 0 mm 2 mps 632 mmHg 38%
    13:00 +17°C° 0 mm 2 mps 631 mmHg 40%
    14:00 +17°C° 0 mm 2 mps 631 mmHg 43%
    15:00 +17°C° 0 mm 2 mps 630 mmHg 45%
    16:00 +14°C° 0 mm 2 mps 630 mmHg 52%
    17:00 +12°C° 0 mm 2 mps 629 mmHg 59%
    18:00 +10°C° 0 mm 1 mps 628 mmHg 67%
    19:00 +9°C° 0 mm 1 mps 628 mmHg 65%
    20:00 +9°C° 0 mm 1 mps 629 mmHg 64%
    21:00 +8°C° 0 mm 1 mps 629 mmHg 63%
    22:00 +8°C° 0 mm 1 mps 629 mmHg 63%
    23:00 +8°C° 0 mm 1 mps 629 mmHg 64%
    Show more